Simultaneous Nadir Overpasses (SNOs) Predictions

Prediction of SNOs between NOAA-15 and METOP-C Satellite Orbit:

Table of predicted SNOs for the next 14.0 days since TLE Epoch: 2/6/2021
Index Date (NOAA-15) Time (NOAA-15) Lat,Lon (NOAA-15) SZA (NOAA-15 ) Date (METOP-C) Time (METOP-C) Lat,Lon (METOP-C) SZA (METOP-C ) Distance(km) Time Diff (sec)
1 02/13/2021 12:10:44 -80.98,-145.76 84.44 02/13/2021 12:09:29 -80.98,-145.74 84.46 0.49 75
2 02/13/2021 13:01:15 80.99, 21.34 95.54 02/13/2021 13:00:09 80.97, 21.45 95.51 2.57 66
3 02/13/2021 13:51:47 -80.99,-171.27 84.48 02/13/2021 13:50:51 -80.97,-171.22 84.50 1.80 56
4 02/13/2021 14:42:17 80.98, -3.80 95.52 02/13/2021 14:41:30 80.98, -3.68 95.52 2.11 47
5 02/13/2021 15:32:49 -80.98, 163.59 84.49 02/13/2021 15:32:12 -80.98, 163.65 84.50 1.06 37
6 02/13/2021 16:23:19 80.98, -28.94 95.50 02/13/2021 16:22:51 80.99, -28.80 95.52 2.85 28
7 02/13/2021 17:13:51 -80.98, 138.45 84.51 02/13/2021 17:13:33 -80.99, 138.53 84.50 2.18 18
8 02/13/2021 18:04:22 80.99, -54.44 95.47 02/13/2021 18:04:13 80.99, -54.29 95.48 2.68 9
9 02/13/2021 18:54:54 -80.99, 112.94 84.55 02/13/2021 18:54:55 -80.99, 113.04 84.54 1.82 1
10 02/13/2021 19:45:24 80.98, -79.58 95.45 02/13/2021 19:45:34 81.00, -79.41 95.48 3.18 10
11 02/13/2021 20:35:56 -80.98, 87.79 84.57 02/13/2021 20:36:16 -81.00, 87.92 84.54 2.51 20
12 02/13/2021 21:26:26 81.00,-105.09 95.42 02/13/2021 21:26:55 80.99,-104.90 95.44 3.27 29
13 02/13/2021 22:16:58 -81.00, 62.28 84.60 02/13/2021 22:17:37 -80.99, 62.43 84.58 2.60 39
14 02/13/2021 23:07:28 80.99,-130.22 95.40 02/13/2021 23:08:17 80.98,-130.39 95.39 3.03 49
15 02/13/2021 23:58:00 -80.99, 37.14 84.62 02/13/2021 23:58:58 -81.00, 37.31 84.58 3.02 58
16 02/14/2021 00:48:30 80.98,-155.36 95.38 02/14/2021 00:49:38 80.99,-155.52 95.40 2.76 68



Historial Predications of SNOs between NOAA-15 and METOP-C
